Location: Newark
(40.4667°N, 5.6000°W)
Time: 06:16:41
(UTC+00:00)

Tiros 1 - All Passes

Search period start: 12 November 2019 00:00
Search period end: 22 November 2019 00:00
Orbit: 630 x 664 km, 48.4° (Epoch: 11 November)

Date Brightness Start Highest point End Pass type
(mag) Time Alt. Az. Time Alt. Az. Time Alt. Az.
12 Nov - 15:39:54 10° S 15:43:23 21° SE 15:46:54 10° E daylight
12 Nov - 17:20:32 10° WSW 17:25:09 81° NNW 17:29:51 10° ENE daylight
12 Nov - 19:03:35 10° WNW 19:07:49 34° N 19:12:06 10° NE visible
12 Nov - 20:46:35 10° NW 20:50:52 34° N 20:55:11 10° ENE visible
12 Nov - 22:28:47 10° WNW 22:33:30 84° NNE 22:38:17 10° ESE night (unlit)
13 Nov - 00:11:44 10° W 00:15:18 21° SW 00:18:53 10° S night (unlit)
13 Nov - 16:04:44 10° SW 16:09:09 47° SE 16:13:36 10° ENE daylight
13 Nov - 17:46:53 10° W 17:51:22 48° NNW 17:55:54 10° NE visible
13 Nov - 19:30:10 10° WNW 19:34:19 30° N 19:38:29 10° ENE visible
13 Nov - 21:12:43 10° NW 21:17:15 47° NNE 21:21:50 10° E visible
13 Nov - 22:54:57 10° WNW 22:59:31 50° SW 23:04:06 10° SE night (unlit)
14 Nov - 14:50:06 10° S 14:53:24 20° SE 14:56:43 10° E daylight
14 Nov - 16:30:31 10° WSW 16:35:08 86° NW 16:39:49 10° ENE daylight
14 Nov - 18:13:30 10° WNW 18:17:45 34° N 18:22:02 10° NE visible
14 Nov - 19:56:33 10° NW 20:00:47 33° N 20:05:05 10° ENE visible
14 Nov - 21:38:46 10° WNW 21:43:28 79° NNE 21:48:13 10° ESE night (unlit)
14 Nov - 23:21:36 10° W 23:25:19 23° SW 23:29:03 10° S night (unlit)
15 Nov - 15:14:48 10° SSW 15:19:09 43° SE 15:23:32 10° ENE daylight
15 Nov - 16:56:49 10° W 17:01:20 50° NNW 17:05:52 10° NE daylight
15 Nov - 18:40:07 10° WNW 18:44:14 30° N 18:48:23 10° ENE visible
15 Nov - 20:22:42 10° NW 20:27:12 45° NNE 20:31:44 10° E visible
15 Nov - 22:04:55 10° WNW 22:09:30 54° SW 22:14:07 10° SE night (unlit)
16 Nov - 14:00:19 10° S 14:03:25 18° SE 14:06:33 10° E daylight
16 Nov - 15:40:29 10° WSW 15:45:07 88° SE 15:49:46 10° ENE daylight
16 Nov - 17:23:26 10° W 17:27:42 35° NNW 17:31:59 10° NE visible
16 Nov - 19:06:31 10° NW 19:10:43 33° N 19:14:58 10° ENE visible
16 Nov - 20:48:45 10° WNW 20:53:27 74° NNE 20:58:09 10° ESE visible
16 Nov - 22:31:29 10° W 22:35:19 25° SW 22:39:10 10° S night (unlit)
17 Nov - 14:24:52 10° SSW 14:29:09 40° SE 14:33:28 10° ENE daylight
17 Nov - 16:06:46 10° W 16:11:16 52° NNW 16:15:50 10° NE daylight
17 Nov - 17:50:02 10° WNW 17:54:10 30° N 17:58:18 10° ENE visible
17 Nov - 19:32:41 10° NW 19:37:08 43° NNE 19:41:38 10° E visible
17 Nov - 21:14:53 10° WNW 21:19:29 58° SW 21:24:07 10° SE visible
17 Nov - 23:00:02 10° WSW 23:00:56 10° SW 23:01:51 10° SW night (unlit)
18 Nov - 13:10:34 10° S 13:13:27 16° SE 13:16:20 10° E daylight
18 Nov - 14:50:29 10° SW 14:55:05 83° SSE 14:59:44 10° ENE daylight
18 Nov - 16:33:21 10° W 16:37:38 36° NNW 16:41:56 10° NE daylight
18 Nov - 18:16:29 10° WNW 18:20:39 32° N 18:24:52 10° ENE visible
18 Nov - 19:58:44 10° WNW 20:03:24 70° NNE 20:08:05 10° ESE visible
18 Nov - 21:41:23 10° W 21:45:19 27° SW 21:49:17 10° SSE night (unlit)
19 Nov - 13:34:56 10° SSW 13:39:09 36° SE 13:43:24 10° ENE daylight
19 Nov - 15:16:43 10° WSW 15:21:14 55° NNW 15:25:48 10° NE daylight
19 Nov - 16:59:58 10° WNW 17:04:05 30° N 17:08:14 10° ENE daylight
19 Nov - 18:42:40 10° NW 18:47:05 41° NNE 18:51:31 10° E visible
19 Nov - 20:24:51 10° WNW 20:29:28 62° SW 20:34:06 10° SE visible
19 Nov - 22:09:21 10° WSW 22:10:57 12° SW 22:12:34 10° SSW night (unlit)
20 Nov - 12:20:51 10° SSE 12:23:28 15° SE 12:26:05 10° E daylight
20 Nov - 14:00:28 10° SW 14:05:04 78° SSE 14:09:42 10° ENE daylight
20 Nov - 15:43:16 10° W 15:47:34 37° NNW 15:51:53 10° NE daylight
20 Nov - 17:26:26 10° WNW 17:30:35 31° N 17:34:46 10° ENE visible
20 Nov - 19:08:43 10° WNW 19:13:21 65° NNE 19:18:01 10° ESE visible
20 Nov - 20:51:17 10° WNW 20:55:19 29° SW 20:59:22 10° SSE visible
21 Nov - 12:45:01 10° SSW 12:49:10 34° SE 12:53:19 10° ENE daylight
21 Nov - 14:26:39 10° WSW 14:31:12 58° NNW 14:35:47 10° NE daylight
21 Nov - 16:09:54 10° WNW 16:14:01 31° N 16:18:09 10° ENE daylight
21 Nov - 17:52:39 10° NW 17:57:01 40° NNE 18:01:25 10° E visible
21 Nov - 19:34:49 10° WNW 19:39:27 67° SW 19:44:06 10° SE visible
21 Nov - 21:18:55 10° WSW 21:20:58 13° SW 21:23:03 10° SSW visible
